DL8BNG-13 Weather Reports


time (UTC)temp
F
wind
direction
speed
knots
gust
knots
rain 1hr
in
rain 24hr
in
rain mn
in
humidity
%
barometer
mb
20260506103003 66 160 1.7 0.0 0.00 0.00 0.05 59
20260506101503 65 227 5.2 0.0 0.00 0.00 0.05 60
20260506100003 65 187 3.5 0.0 0.00 0.00 0.05 62
20260506094503 66 205 3.5 0.0 0.00 0.00 0.05 60
20260506093002 66 210 2.6 0.0 0.00 0.00 0.05 58
20260506091503 66 222 3.5 0.0 0.00 0.00 0.05 59
20260506090002 65 220 2.6 0.0 0.00 0.00 0.05 64
20260506084502 64 192 4.3 0.0 0.00 0.00 0.05 62
20260506083002 64 202 3.5 0.0 0.00 0.00 0.05 64
20260506081503 64 215 3.5 0.0 0.00 0.00 0.05 67
20260506073002 61 200 1.7 0.0 0.00 0.00 0.05 73
20260506071502 60 200 5.2 0.0 0.00 0.00 0.05 75
20260506061503 58 195 2.6 0.0 0.00 0.00 0.05 81
20260506044503 54 65 0.0 0.0 0.00 0.00 0.05 90
20260506043003 53 110 0.0 0.0 0.00 0.00 0.05 91
20260506041503 52 285 0.0 0.0 0.00 0.00 0.05 92
20260506040003 52 292 1.7 0.0 0.00 0.00 0.05 92
20260506034502 52 300 1.7 0.0 0.00 0.00 0.05 92
20260506033004 52 80 0.0 0.0 0.00 0.00 0.05 91
20260506031503 52 337 0.0 0.0 0.00 0.00 0.05 91
20260506030002 52 345 0.0 0.0 0.00 0.00 0.05 91
20260506024503 52 342 0.0 0.0 0.00 0.00 0.05 91
20260506023003 53 267 0.0 0.0 0.00 0.00 0.05 91
20260506021502 53 272 0.0 0.0 0.00 0.00 0.05 91
20260506020003 53 340 0.0 0.0 0.00 0.00 0.05 91
20260506014503 53 327 0.0 0.0 0.00 0.00 0.05 90
20260506013002 53 287 0.0 0.0 0.00 0.00 0.05 90
20260506011502 54 340 0.0 0.0 0.00 0.00 0.05 90
20260506010002 54 285 2.6 0.0 0.00 0.00 0.05 90
20260506004503 54 345 0.0 0.0 0.00 0.00 0.05 90
20260506003002 55 290 1.7 0.0 0.00 0.00 0.05 90
20260506001502 55 305 1.7 0.0 0.00 0.00 0.05 90
20260506000003 55 245 1.7 0.0 0.00 0.00 0.05 90
20260505234502 55 7 2.6 0.0 0.00 0.00 0.05 90
20260505233003 55 255 2.6 0.0 0.00 0.00 0.05 90
20260505231502 55 210 1.7 0.0 0.00 0.00 0.05 90
20260505230002 55 260 1.7 0.0 0.00 0.00 0.02 91
20260505224502 55 212 3.5 0.0 0.00 0.00 0.00 91
20260505223002 55 325 0.0 0.0 0.00 0.00 0.00 91
20260505221501 55 120 0.0 0.0 0.00 0.00 0.00 91
20260505220003 55 2 0.0 0.0 0.00 0.00 0.51 91
20260505214502 55 100 0.0 0.0 0.00 0.00 0.51 91
20260505213002 55 332 0.0 0.0 0.00 0.00 0.51 91
20260505211503 55 337 0.0 0.0 0.00 0.00 0.51 91
20260505210003 55 322 0.0 0.0 0.00 0.00 0.51 91
20260505204503 55 317 0.0 0.0 0.00 0.00 0.51 91
20260505203002 55 327 0.0 0.0 0.00 0.00 0.51 90
20260505201503 55 332 0.0 0.0 0.00 0.00 0.51 90
20260505200001 56 345 0.0 0.0 0.00 0.00 0.51 90
20260505194501 56 345 0.0 0.0 0.00 0.00 0.51 90
20260505193003 57 322 0.0 0.0 0.00 0.00 0.51 90
20260505191502 57 335 0.0 0.0 0.00 0.00 0.51 89
20260505190003 57 337 0.0 0.0 0.00 0.00 0.51 89
20260505184502 57 225 0.0 0.0 0.00 0.00 0.51 89
20260505183002 57 247 0.0 0.0 0.00 0.00 0.51 89
20260505181502 57 180 0.0 0.0 0.00 0.00 0.51 89
20260505180003 57 170 0.0 0.0 0.00 0.00 0.50 89
20260505174502 57 137 0.0 0.0 0.00 0.00 0.49 88
20260505173001 57 132 0.0 0.0 0.00 0.00 0.49 88
20260505171502 57 142 0.0 0.0 0.00 0.00 0.48 88
20260505170003 57 120 0.0 0.0 0.00 0.00 0.46 88
20260505164502 57 317 5.2 0.0 0.00 0.00 0.44 87
20260505163002 57 230 7.0 0.0 0.00 0.00 0.42 87
20260505161503 57 232 5.2 0.0 0.00 0.00 0.38 86
20260505153003 58 242 6.1 0.0 0.00 0.00 0.12 79
20260505151502 61 240 7.0 0.0 0.00 0.00 0.06 71
20260505124503 76 335 1.7 0.0 0.00 0.00 0.00 38
20260505123002 76 172 3.5 0.0 0.00 0.00 0.00 38
20260505121502 77 202 2.6 0.0 0.00 0.00 0.00 38
20260505120002 78 220 2.6 0.0 0.00 0.00 0.00 37
20260505114503 75 107 5.2 0.0 0.00 0.00 0.00 40
20260505113003 75 105 2.6 0.0 0.00 0.00 0.00 41
20260505111502 75 177 4.3 0.0 0.00 0.00 0.00 42